CFG2016 EGLL-LOWW

Flight info

Callsign CFG2016
Flight time N/A
Altitude 41000
Route DET L6 DVR UL9 KONAN DCT KOK UL607 FERDI DCT MATUG DCT GUBAX DCT BARSU DCT EKSOS DCT LULAR DCT RUDAP DCT BUDEX BUDEX2W
Aircraft A359/H-SDE2E3GHIJ3J4J5LM1ORWXY/LB1D1

Departure

Time 2026-05-05 12:30
Airport London Heathrow Airport (EGLL)

Arrival

Time N/A
Airport Vienna International Airport (LOWW)
Time Latitude Longitude Altitude Speed Heading
2026-05-05 12:08 51.47051 -0.48014 92 ft 0 kts 269°
2026-05-05 12:16 51.47051 -0.48012 92 ft 2 kts 269°
2026-05-05 12:16 51.47052 -0.47982 94 ft 3 kts 269°
2026-05-05 12:16 51.47052 -0.47953 94 ft 3 kts 269°
2026-05-05 12:17 51.47052 -0.47924 94 ft 3 kts 281°
2026-05-05 12:17 51.47046 -0.47896 93 ft 3 kts 300°
2026-05-05 12:17 51.47035 -0.47873 93 ft 3 kts 320°
2026-05-05 12:17 51.47020 -0.47857 93 ft 3 kts 340°
2026-05-05 12:18 51.47003 -0.47851 93 ft 0 kts 359°
2026-05-05 12:18 51.47004 -0.47851 93 ft 1 kts 358°
2026-05-05 12:18 51.47009 -0.47863 92 ft 2 kts 306°
2026-05-05 12:19 51.47002 -0.47881 92 ft 2 kts 229°
2026-05-05 12:19 51.46991 -0.47881 92 ft 0 kts 184°
2026-05-05 12:20 51.46974 -0.47881 92 ft 8 kts 182°
2026-05-05 12:21 51.46893 -0.47882 91 ft 4 kts 175°
2026-05-05 12:21 51.46872 -0.47879 91 ft 8 kts 175°
2026-05-05 12:21 51.46831 -0.47874 91 ft 0 kts 176°
2026-05-05 12:23 51.46786 -0.47872 91 ft 10 kts 184°
2026-05-05 12:23 51.46746 -0.47950 94 ft 11 kts 259°
2026-05-05 12:23 51.46737 -0.48112 90 ft 13 kts 271°
2026-05-05 12:23 51.46738 -0.48145 91 ft 7 kts 270°
2026-05-05 12:24 51.46739 -0.48277 91 ft 17 kts 271°
2026-05-05 12:24 51.46742 -0.48481 90 ft 20 kts 271°
2026-05-05 12:24 51.46740 -0.48652 90 ft 8 kts 264°
2026-05-05 12:24 51.46719 -0.48707 95 ft 2 kts 210°
2026-05-05 12:25 51.46693 -0.48725 93 ft 0 kts 203°
2026-05-05 12:27 51.46665 -0.48739 93 ft 7 kts 196°
2026-05-05 12:27 51.46661 -0.48740 92 ft 3 kts 194°
2026-05-05 12:27 51.46632 -0.48753 93 ft 0 kts 196°
2026-05-05 12:28 51.46614 -0.48760 94 ft 7 kts 194°
2026-05-05 12:28 51.46535 -0.48776 93 ft 16 kts 182°
2026-05-05 12:28 51.46476 -0.48714 95 ft 7 kts 103°
2026-05-05 12:28 51.46476 -0.48691 94 ft 0 kts 90°
2026-05-05 12:29 51.46475 -0.48464 95 ft 56 kts 89°
2026-05-05 12:29 51.46482 -0.47430 92 ft 126 kts 90°
2026-05-05 12:29 51.46486 -0.45732 321 ft 164 kts 87°
2026-05-05 12:30 51.46497 -0.43937 1197 ft 161 kts 88°
2026-05-05 12:30 51.46300 -0.42220 2192 ft 157 kts 105°
2026-05-05 12:30 51.45827 -0.40702 3077 ft 152 kts 118°
2026-05-05 12:30 51.45248 -0.39137 3474 ft 177 kts 116°
2026-05-05 12:31 51.44683 -0.37211 3788 ft 204 kts 107°
2026-05-05 12:31 51.44218 -0.34911 4186 ft 230 kts 104°
2026-05-05 12:31 51.43738 -0.32351 4723 ft 248 kts 105°
2026-05-05 12:31 51.43229 -0.29664 5540 ft 255 kts 105°
2026-05-05 12:32 51.42716 -0.26906 6376 ft 262 kts 104°
2026-05-05 12:32 51.42310 -0.24017 7197 ft 269 kts 101°
2026-05-05 12:32 51.41934 -0.21057 8094 ft 274 kts 101°
2026-05-05 12:32 51.41542 -0.18031 9024 ft 279 kts 101°
2026-05-05 12:33 51.41133 -0.14964 9981 ft 285 kts 102°
2026-05-05 12:33 51.40717 -0.11879 10839 ft 289 kts 102°
2026-05-05 12:33 51.40273 -0.08720 11764 ft 294 kts 102°
2026-05-05 12:33 51.39808 -0.05430 12275 ft 314 kts 102°
2026-05-05 12:34 51.39311 -0.01907 12685 ft 335 kts 102°
2026-05-05 12:34 51.38781 0.01830 13084 ft 354 kts 102°
2026-05-05 12:34 51.38220 0.05783 13511 ft 371 kts 102°
2026-05-05 12:34 51.37638 0.09868 14136 ft 380 kts 102°
2026-05-05 12:35 51.37041 0.14014 14808 ft 386 kts 102°
2026-05-05 12:35 51.36428 0.18228 15509 ft 391 kts 102°
2026-05-05 12:35 51.35814 0.22498 16213 ft 396 kts 102°
2026-05-05 12:35 51.35194 0.26805 16922 ft 401 kts 102°
2026-05-05 12:36 51.34586 0.31238 17255 ft 415 kts 100°
2026-05-05 12:36 51.34073 0.35862 17733 ft 428 kts 99°
2026-05-05 12:36 51.33586 0.40557 18620 ft 425 kts 99°
2026-05-05 12:36 51.33133 0.45111 19703 ft 417 kts 99°
2026-05-05 12:37 51.32690 0.49651 20788 ft 410 kts 99°
2026-05-05 12:37 51.32252 0.54157 21670 ft 411 kts 99°
2026-05-05 12:37 51.31810 0.58689 22396 ft 414 kts 99°
2026-05-05 12:37 51.31362 0.63248 23111 ft 417 kts 100°
2026-05-05 12:38 51.30905 0.67850 23786 ft 421 kts 100°
2026-05-05 12:38 51.30441 0.72496 24377 ft 424 kts 100°
2026-05-05 12:38 51.29972 0.77167 24969 ft 428 kts 101°
2026-05-05 12:38 51.29504 0.81816 25540 ft 431 kts 101°
2026-05-05 12:39 51.29017 0.86622 26106 ft 434 kts 101°
2026-05-05 12:39 51.28538 0.91333 26631 ft 438 kts 101°
2026-05-05 12:39 51.28046 0.96152 27191 ft 442 kts 101°
2026-05-05 12:39 51.27547 1.01015 27747 ft 445 kts 101°
2026-05-05 12:40 51.27043 1.05910 28281 ft 449 kts 101°
2026-05-05 12:40 51.26532 1.10844 28816 ft 453 kts 101°
2026-05-05 12:40 51.26013 1.15837 29317 ft 457 kts 101°
2026-05-05 12:40 51.25491 1.20852 29807 ft 461 kts 101°
2026-05-05 12:41 51.24961 1.25920 30248 ft 465 kts 101°
2026-05-05 12:41 51.24607 1.29292 30519 ft 467 kts 101°
2026-05-05 12:41 51.24067 1.34417 30911 ft 470 kts 101°
2026-05-05 12:41 51.23521 1.39578 31310 ft 473 kts 102°
2026-05-05 12:42 51.22787 1.46472 31813 ft 477 kts 102°
2026-05-05 12:42 51.22227 1.51708 32176 ft 480 kts 102°
2026-05-05 12:42 51.21661 1.56966 32532 ft 483 kts 102°
2026-05-05 12:42 51.21089 1.62268 32877 ft 486 kts 102°
2026-05-05 12:43 51.20707 1.65789 33085 ft 488 kts 102°
2026-05-05 12:43 51.20126 1.71132 33446 ft 489 kts 102°
2026-05-05 12:43 51.19545 1.76461 33927 ft 488 kts 102°
2026-05-05 12:43 51.18960 1.81796 34309 ft 488 kts 102°
2026-05-05 12:44 51.18375 1.87114 34647 ft 488 kts 102°
2026-05-05 12:44 51.17785 1.92441 34994 ft 488 kts 102°
2026-05-05 12:44 51.17193 1.97776 35311 ft 489 kts 102°
2026-05-05 12:44 51.16597 2.03109 35628 ft 490 kts 102°
2026-05-05 12:45 51.15998 2.08454 35944 ft 490 kts 102°
2026-05-05 12:45 51.15396 2.13793 36243 ft 491 kts 102°
2026-05-05 12:45 51.14592 2.20896 36643 ft 491 kts 102°
2026-05-05 12:45 51.14190 2.24433 36854 ft 492 kts 102°
2026-05-05 12:46 51.13578 2.29799 37158 ft 492 kts 102°
2026-05-05 12:46 51.12964 2.35153 37445 ft 493 kts 102°
2026-05-05 12:46 51.12346 2.40526 37732 ft 493 kts 102°
2026-05-05 12:46 51.11726 2.45896 38009 ft 494 kts 102°
2026-05-05 12:47 51.11102 2.51276 38289 ft 494 kts 102°
2026-05-05 12:47 51.10475 2.56653 38555 ft 495 kts 102°
2026-05-05 12:47 51.09843 2.62043 38775 ft 495 kts 102°
2026-05-05 12:47 51.09061 2.67295 38957 ft 495 kts 107°
2026-05-05 12:48 51.08155 2.72575 39165 ft 495 kts 107°
2026-05-05 12:48 51.07217 2.77837 39364 ft 495 kts 108°
2026-05-05 12:48 51.06262 2.83089 39565 ft 495 kts 108°
2026-05-05 12:48 51.05295 2.88357 39767 ft 496 kts 108°
2026-05-05 12:49 51.04328 2.93615 39958 ft 496 kts 108°
2026-05-05 12:49 51.03361 2.98865 40130 ft 496 kts 108°
2026-05-05 12:49 51.02390 3.04139 40326 ft 497 kts 108°
2026-05-05 12:49 51.01434 3.09330 40512 ft 497 kts 108°
2026-05-05 12:50 51.00463 3.14590 40684 ft 497 kts 108°
2026-05-05 12:50 50.99488 3.19857 40849 ft 497 kts 108°
2026-05-05 12:50 50.97527 3.30411 40909 ft 498 kts 108°
2026-05-05 12:51 50.95560 3.40942 40905 ft 498 kts 108°
2026-05-05 12:51 50.93584 3.51454 40903 ft 498 kts 108°
2026-05-05 12:52 50.91610 3.61896 40903 ft 497 kts 108°
2026-05-05 12:52 50.89701 3.72432 40909 ft 498 kts 107°
2026-05-05 12:53 50.87949 3.83025 40909 ft 498 kts 106°
2026-05-05 12:53 50.86187 3.93627 40906 ft 498 kts 107°
2026-05-05 12:54 50.83481 4.09474 40908 ft 497 kts 107°
2026-05-05 12:55 50.81667 4.19954 40908 ft 497 kts 107°
2026-05-05 12:55 50.79832 4.30488 40909 ft 497 kts 107°
2026-05-05 12:56 50.77988 4.41019 40905 ft 497 kts 108°
2026-05-05 12:56 50.76150 4.51452 40913 ft 497 kts 108°
2026-05-05 12:57 50.74285 4.61983 40906 ft 497 kts 108°
2026-05-05 12:57 50.72417 4.72476 40901 ft 497 kts 108°
2026-05-05 12:58 50.70549 4.82899 40896 ft 496 kts 108°
2026-05-05 12:58 50.68666 4.93344 40889 ft 496 kts 108°
2026-05-05 12:59 50.66773 5.03790 40886 ft 495 kts 108°
2026-05-05 12:59 50.64869 5.14231 40883 ft 495 kts 108°
2026-05-05 13:00 50.62019 5.29752 40881 ft 494 kts 109°
2026-05-05 13:01 50.58167 5.50525 40882 ft 494 kts 109°
2026-05-05 13:01 50.56237 5.60846 40885 ft 497 kts 109°
2026-05-05 13:02 50.54262 5.71343 40875 ft 504 kts 109°
2026-05-05 13:02 50.52257 5.81945 40867 ft 507 kts 109°
2026-05-05 13:03 50.50241 5.92553 40858 ft 507 kts 109°
2026-05-05 13:03 50.48215 6.03155 40851 ft 506 kts 109°
2026-05-05 13:04 50.46195 6.13659 40845 ft 506 kts 109°
2026-05-05 13:04 50.44156 6.24203 40836 ft 505 kts 109°
2026-05-05 13:05 50.42142 6.34766 40824 ft 506 kts 106°
2026-05-05 13:05 50.40985 6.45690 40821 ft 509 kts 100°
2026-05-05 13:06 50.40126 6.56706 40818 ft 510 kts 99°
2026-05-05 13:06 50.39302 6.67743 40822 ft 510 kts 99°
2026-05-05 13:07 50.38460 6.78695 40817 ft 510 kts 99°
2026-05-05 13:07 50.37587 6.89723 40826 ft 510 kts 99°
2026-05-05 13:08 50.36701 7.00738 40826 ft 510 kts 100°
2026-05-05 13:08 50.35804 7.11760 40819 ft 510 kts 100°
2026-05-05 13:09 50.34904 7.22697 40829 ft 510 kts 100°
2026-05-05 13:09 50.33989 7.33701 40830 ft 510 kts 100°
2026-05-05 13:10 50.33061 7.44719 40833 ft 510 kts 100°
2026-05-05 13:10 50.32123 7.55734 40830 ft 510 kts 100°
2026-05-05 13:11 50.31182 7.66652 40824 ft 510 kts 100°
2026-05-05 13:11 50.30224 7.77649 40825 ft 510 kts 101°
2026-05-05 13:12 50.29257 7.88629 40824 ft 510 kts 101°
2026-05-05 13:12 50.28113 7.99556 40826 ft 508 kts 105°
2026-05-05 13:13 50.26530 8.10318 40834 ft 507 kts 106°
2026-05-05 13:13 50.24932 8.20972 40835 ft 508 kts 106°
2026-05-05 13:14 50.23382 8.31741 40840 ft 508 kts 105°
2026-05-05 13:14 50.21859 8.42509 40838 ft 508 kts 105°
2026-05-05 13:15 50.20302 8.53264 40823 ft 508 kts 105°
2026-05-05 13:15 50.18786 8.63980 40824 ft 508 kts 105°
2026-05-05 13:16 50.17248 8.74729 40825 ft 508 kts 105°
2026-05-05 13:16 50.15684 8.85506 40826 ft 509 kts 106°
2026-05-05 13:17 50.14108 8.96270 40820 ft 509 kts 106°
2026-05-05 13:17 50.12523 9.07014 40816 ft 509 kts 106°
2026-05-05 13:18 50.10938 9.17690 40819 ft 509 kts 106°
2026-05-05 13:18 50.09332 9.28431 40821 ft 510 kts 106°
2026-05-05 13:19 50.07714 9.39179 40815 ft 509 kts 106°
2026-05-05 13:19 50.06089 9.49904 40819 ft 510 kts 106°
2026-05-05 13:20 50.04461 9.60576 40815 ft 509 kts 106°
2026-05-05 13:20 50.02815 9.71296 40815 ft 510 kts 107°
2026-05-05 13:21 50.01159 9.82008 40811 ft 510 kts 107°
2026-05-05 13:21 49.99492 9.92724 40813 ft 510 kts 107°
2026-05-05 13:22 49.97815 10.03429 40810 ft 510 kts 107°
2026-05-05 13:22 49.96136 10.14073 40812 ft 511 kts 107°
2026-05-05 13:23 49.94437 10.24774 40799 ft 511 kts 107°
2026-05-05 13:23 49.92726 10.35467 40797 ft 511 kts 107°
2026-05-05 13:24 49.90401 10.45808 40808 ft 507 kts 114°
2026-05-05 13:24 49.87816 10.55929 40799 ft 507 kts 115°
2026-05-05 13:25 49.85169 10.66075 40794 ft 507 kts 115°
2026-05-05 13:25 49.82518 10.76206 40793 ft 508 kts 115°
2026-05-05 13:26 49.79866 10.86326 40789 ft 508 kts 115°
2026-05-05 13:26 49.77221 10.96388 40791 ft 508 kts 115°
2026-05-05 13:27 49.74551 11.06503 40790 ft 508 kts 115°
2026-05-05 13:27 49.71870 11.16608 40786 ft 508 kts 115°
2026-05-05 13:28 49.69179 11.26713 40784 ft 508 kts 115°
2026-05-05 13:28 49.66480 11.36799 40781 ft 509 kts 115°
2026-05-05 13:29 49.63887 11.46885 40773 ft 511 kts 112°
2026-05-05 13:29 49.61774 11.57372 40767 ft 512 kts 109°
2026-05-05 13:30 49.59729 11.67898 40767 ft 512 kts 110°
2026-05-05 13:30 49.57594 11.78362 40767 ft 512 kts 110°
2026-05-05 13:31 49.55398 11.88801 40764 ft 513 kts 111°
2026-05-05 13:31 49.53194 11.99170 40761 ft 513 kts 111°
2026-05-05 13:32 49.50969 12.09603 40759 ft 513 kts 111°
2026-05-05 13:32 49.48736 12.20033 40760 ft 513 kts 111°
2026-05-05 13:33 49.46495 12.30454 40756 ft 514 kts 111°
2026-05-05 13:33 49.44257 12.40803 40751 ft 514 kts 111°
2026-05-05 13:34 49.41996 12.51208 40750 ft 514 kts 111°
2026-05-05 13:34 49.39719 12.61634 40755 ft 514 kts 111°
2026-05-05 13:35 49.37438 12.72025 40751 ft 514 kts 111°
2026-05-05 13:35 49.35102 12.82395 40752 ft 514 kts 112°
2026-05-05 13:36 49.32585 12.92585 40750 ft 514 kts 114°
2026-05-05 13:36 49.30020 13.02814 40756 ft 514 kts 113°
2026-05-05 13:37 49.27475 13.13050 40757 ft 514 kts 113°
2026-05-05 13:37 49.24953 13.23225 40755 ft 515 kts 113°
2026-05-05 13:38 49.22345 13.33415 40760 ft 514 kts 115°
2026-05-05 13:38 49.19598 13.43504 40750 ft 514 kts 115°
2026-05-05 13:39 49.16856 13.53601 40750 ft 514 kts 115°
2026-05-05 13:39 49.14116 13.63689 40749 ft 514 kts 115°
2026-05-05 13:40 49.11385 13.73715 40748 ft 514 kts 115°
2026-05-05 13:40 49.08633 13.83776 40746 ft 514 kts 115°
2026-05-05 13:41 49.05865 13.93851 40742 ft 515 kts 115°
2026-05-05 13:41 49.03091 14.03909 40741 ft 515 kts 115°
2026-05-05 13:42 49.00328 14.13882 40742 ft 515 kts 115°
2026-05-05 13:42 48.97534 14.23927 40733 ft 515 kts 115°
2026-05-05 13:43 48.94577 14.33823 40730 ft 512 kts 124°
2026-05-05 13:43 48.90394 14.42510 40735 ft 509 kts 130°
2026-05-05 13:44 48.86084 14.50969 40733 ft 510 kts 130°
2026-05-05 13:44 48.81752 14.59491 40734 ft 510 kts 130°
2026-05-05 13:45 48.77421 14.68003 40718 ft 508 kts 130°
2026-05-05 13:45 48.75281 14.72203 40200 ft 503 kts 130°
2026-05-05 13:45 48.73133 14.76410 39365 ft 506 kts 130°
2026-05-05 13:46 48.70977 14.80630 38591 ft 506 kts 130°
2026-05-05 13:46 48.68851 14.84779 37717 ft 505 kts 130°
2026-05-05 13:46 48.66702 14.88962 36750 ft 505 kts 130°
2026-05-05 13:46 48.64535 14.93173 35816 ft 506 kts 130°
2026-05-05 13:47 48.62372 14.97371 34855 ft 506 kts 130°
2026-05-05 13:47 48.60224 15.01584 33882 ft 508 kts 129°
2026-05-05 13:47 48.58492 15.06256 32699 ft 515 kts 114°
2026-05-05 13:47 48.57437 15.11457 31526 ft 520 kts 105°
2026-05-05 13:48 48.56586 15.16776 30323 ft 523 kts 105°
2026-05-05 13:48 48.55721 15.22129 29191 ft 524 kts 105°
2026-05-05 13:48 48.54842 15.27416 28458 ft 517 kts 105°
2026-05-05 13:48 48.53968 15.32571 27771 ft 510 kts 105°
2026-05-05 13:49 48.53083 15.37718 27064 ft 504 kts 106°
2026-05-05 13:49 48.52221 15.42813 26358 ft 499 kts 104°
2026-05-05 13:49 48.51729 15.47975 25467 ft 499 kts 96°
2026-05-05 13:49 48.51445 15.53185 24719 ft 495 kts 95°
2026-05-05 13:50 48.51181 15.58290 23847 ft 482 kts 95°
2026-05-05 13:50 48.50912 15.63284 22761 ft 477 kts 95°
2026-05-05 13:50 48.50638 15.68247 21593 ft 472 kts 95°
2026-05-05 13:50 48.50362 15.73141 20471 ft 465 kts 96°
2026-05-05 13:51 48.50084 15.77900 19411 ft 457 kts 96°
2026-05-05 13:51 48.49803 15.82638 18367 ft 451 kts 96°
2026-05-05 13:51 48.49522 15.87353 17552 ft 450 kts 96°
2026-05-05 13:51 48.49249 15.91927 16551 ft 431 kts 96°
2026-05-05 13:52 48.48977 15.96412 15451 ft 429 kts 96°
2026-05-05 13:52 48.48705 16.00873 14375 ft 424 kts 96°
2026-05-05 13:52 48.48436 16.05262 13314 ft 418 kts 96°
2026-05-05 13:52 48.48128 16.09573 12165 ft 410 kts 102°
2026-05-05 13:53 48.47234 16.13578 11063 ft 399 kts 116°
2026-05-05 13:53 48.46097 16.17282 10019 ft 391 kts 117°
2026-05-05 13:53 48.44962 16.20948 8917 ft 383 kts 117°
2026-05-05 13:53 48.43859 16.24565 7822 ft 377 kts 117°
2026-05-05 13:54 48.42786 16.28124 6739 ft 370 kts 117°
2026-05-05 13:54 48.41729 16.31634 5662 ft 365 kts 117°
2026-05-05 13:54 48.40699 16.35076 4769 ft 356 kts 118°
2026-05-05 13:54 48.39676 16.38488 4377 ft 358 kts 117°
2026-05-05 13:55 48.38662 16.41888 4079 ft 354 kts 118°
2026-05-05 13:55 48.37677 16.45210 3501 ft 350 kts 117°
2026-05-05 13:55 48.36390 16.48169 3116 ft 333 kts 139°
2026-05-05 13:55 48.34404 16.49868 3020 ft 331 kts 165°
2026-05-05 13:56 48.32149 16.50374 3024 ft 318 kts 175°
2026-05-05 13:56 48.30084 16.50644 3005 ft 276 kts 175°
2026-05-05 13:56 48.28325 16.50969 2995 ft 236 kts 171°
2026-05-05 13:56 48.26855 16.51486 2983 ft 198 kts 167°
2026-05-05 13:57 48.25656 16.52031 2996 ft 163 kts 167°
2026-05-05 13:57 48.24655 16.52475 3026 ft 144 kts 168°
2026-05-05 13:57 48.23675 16.52882 2999 ft 151 kts 169°
2026-05-05 13:57 48.22669 16.53285 2818 ft 146 kts 169°
2026-05-05 13:58 48.21736 16.53675 2624 ft 132 kts 168°
2026-05-05 13:58 48.20889 16.54040 2462 ft 121 kts 169°
2026-05-05 13:58 48.20091 16.54377 2318 ft 119 kts 169°
2026-05-05 13:58 48.19291 16.54715 2156 ft 120 kts 168°
2026-05-05 13:59 48.17687 16.55396 1839 ft 119 kts 168°
2026-05-05 13:59 48.16891 16.55735 1703 ft 119 kts 168°
2026-05-05 14:00 48.15309 16.56404 1376 ft 118 kts 168°
2026-05-05 14:00 48.14779 16.56629 1276 ft 116 kts 166°
2026-05-05 14:00 48.13778 16.57054 1066 ft 111 kts 166°
2026-05-05 14:00 48.13031 16.57369 913 ft 113 kts 165°
2026-05-05 14:01 48.12260 16.57700 697 ft 116 kts 164°
2026-05-05 14:01 48.11522 16.58037 631 ft 105 kts 164°
2026-05-05 14:01 48.10909 16.58294 624 ft 66 kts 168°